Hourly Data Report for September 28, 2017

All times are specified in Local Standard Time (LST). Add 1 hour to adjust for Daylight Saving Time where and when it is observed.

MONCTON INTL A
NEW BRUNSWICK

46°06'44.000" N
64°40'43.000" W
70.70 m
8103201
71705
YQM

Download Data

Hourly Data (September 2017)
Hourly Data Report for September 28, 2017
Temp Definition
°C
Dew Point Temp Definition
°C
Rel Hum Definition
%
Wind Dir Definition
10's deg

Wind Spd Definition
km/h
Visibility Definition
km
Stn Press Definition
kPa
Hmdx Definition


Wind Chill Definition


Weather Definition


TIME
00:00 Legend Double Dagger 22.2 19.9 86 26 34 24.1 99.69 30   LegendNANA
01:00 Legend Double Dagger 20.4 18.9 91 22 19 24.1 99.62 27   LegendNANA
02:00 Legend Double Dagger 20.0 18.7 92 23 17 24.1 99.56 27   Mostly Cloudy
03:00 Legend Double Dagger 19.4 18.6 95 20 8 24.1 99.46     LegendNANA
04:00 Legend Double Dagger 19.4 18.7 96 24 7 24.1 99.40     LegendNANA
05:00 Legend Double Dagger 19.2 18.7 97 30 9 24.1 99.37     Rain Showers
06:00 Legend Double Dagger 18.5 18.1 97 35 23 3.2 99.33     Rain Showers,Fog
07:00 Legend Double Dagger 17.5 16.6 95 16 12 24.1 99.36     LegendNANA
08:00 Legend Double Dagger 18.7 16.9 89 22 12 24.1 99.29     Mostly Cloudy
09:00 Legend Double Dagger 18.9 16.8 88 23 10 24.1 99.39     LegendNANA
10:00 Legend Double Dagger 19.0 15.7 81 30 18 24.1 99.41     LegendNANA
11:00 Legend Double Dagger 18.8 13.5 71 28 14 24.1 99.43     Mostly Cloudy
12:00 Legend Double Dagger 19.7 10.9 57 29 22 24.1 99.43     LegendNANA
13:00 Legend Double Dagger 18.7 10.8 60 29 19 24.1 99.39     LegendNANA
14:00 Legend Double Dagger 18.9 9.6 55 29 18 24.1 99.38     Mostly Cloudy
15:00 Legend Double Dagger 18.4 9.5 56 30 18 24.1 99.40     LegendNANA
16:00 Legend Double Dagger 19.5 9.9 53 30 17 24.1 99.43     LegendNANA
17:00 Legend Double Dagger 17.6 9.4 58 31 22 24.1 99.47     Mainly Clear
18:00 Legend Double Dagger 14.7 6.2 57 30 26 24.1 99.52     LegendNANA
19:00 Legend Double Dagger 12.7 4.9 59 30 23 24.1 99.57     LegendNANA
20:00 Legend Double Dagger 11.3 4.5 62 30 17 24.1 99.63     Mainly Clear
21:00 Legend Double Dagger 10.6 4.2 65 30 17 24.1 99.65     LegendNANA
22:00 Legend Double Dagger 10.0 4.3 68 29 14 24.1 99.68     LegendNANA
23:00 Legend Double Dagger 8.7 4.3 74 27 9 24.1 99.72     Clear

Notes on Data Quality.

Legend

  • E = Estimated
  • M = Missing
  • NA = Not Available
  • ‡ = Partner data that is not subject to review by the National Climate Archives
Date modified: